Location: Bussy-Saint-Georges
(48.8410°N, 2.7017°E)
Time: 03:29:52
(UTC+00:00)

Cosmos 1727 Rocket - Pass Details

Date: 18 October 2021
Orbit: 960 x 997 km, 82.9° (Epoch: 30 November)

Event Time Altitude Azimuth Distance (km) Brightness Sun altitude
Rises 17:18:20 0° 352° (N) 3,686 7.0 -4.8°
Reaches altitude 10° 17:20:54 10° 355° (N) 2,730 6.3 -5.2°
Maximum altitude 17:27:07 68° 78° (ENE) 1,042 4.0 -6.3°
Drops below altitude 10° 17:33:15 10° 161° (SSE) 2,692 6.2 -7.3°
Sets 17:35:45 0° 164° (SSE) 3,632 6.9 -7.7°
